This is the latest recevied weather packets stored in our database for station/object HB9FHL-13. If no packets are shown the sender has not sent any weather packets the latest 10 day(s).
| Time | Temp. | Humidity | Pressure | Rain* | Wind** | Luminosity | Snow |
|---|---|---|---|---|---|---|---|
| 1777822191 | 19.44° C | - | 1011.5 hPa | 0 mm | - | - | - |
| 1777821889 | 20° C | - | 1012.8 hPa | 0 mm | - | - | - |
| 1777821588 | 20° C | - | 1013.9 hPa | 0 mm | - | - | - |
| 1777821289 | 20.56° C | - | 1017.2 hPa | 0 mm | - | - | - |
| 1777820987 | 20° C | - | 1015.6 hPa | 0 mm | - | - | - |
| 1777820687 | 20° C | - | 1010.4 hPa | 0 mm | - | - | - |
| 1777820386 | 21.11° C | - | 1013.6 hPa | 0 mm | - | - | - |
| 1777820083 | 20.56° C | - | 1012 hPa | 0 mm | - | - | - |
| 1777819781 | 20.56° C | - | 1008.3 hPa | 0 mm | - | - | - |
| 1777819478 | 20.56° C | - | 1015.5 hPa | 0 mm | - | - | - |
| 1777819176 | 20° C | - | 1012.2 hPa | 0 mm | - | - | - |
| 1777818874 | 20.56° C | - | 1014.7 hPa | 0 mm | - | - | - |
| 1777818575 | 21.11° C | - | 1011.9 hPa | 0 mm | - | - | - |
| 1777818270 | 20.56° C | - | 1015.3 hPa | 0 mm | - | - | - |
| 1777817969 | 20.56° C | - | 1014.6 hPa | 0 mm | - | - | - |
| 1777817669 | 20.56° C | - | 1011.3 hPa | 0 mm | - | - | - |
| 1777817368 | 20° C | - | 1013.9 hPa | 0 mm | - | - | - |
| 1777817068 | 19.44° C | - | 1010.5 hPa | 0 mm | - | - | - |
| 1777816767 | 19.44° C | - | 1010.8 hPa | 0 mm | - | - | - |
| 1777816467 | 20.56° C | - | 1015.6 hPa | 0 mm | - | - | - |
| 1777816166 | 20° C | - | 1010.4 hPa | 0 mm | - | - | - |
| 1777815866 | 20.56° C | - | 1011.8 hPa | 0 mm | - | - | - |
| 1777815569 | 19.44° C | - | 1016.6 hPa | 0 mm | - | - | - |
| 1777815266 | 20° C | - | 1016.4 hPa | 0 mm | - | - | - |
| 1777814962 | 19.44° C | - | 1011.4 hPa | 0 mm | - | - | - |
* Rain since midnight (hover to see other rain measurements)
** Current wind speed in m/s (hover to see current wind gust speed)